Location: Cicognara
(44.9500°N, 10.4667°E)
Time: 13:51:35
(UTC+00:00)

Cosmos 1707 - Pass Details

Date: 20 June 2021
Orbit: 513 x 530 km, 82.5° (Epoch: 02 August)

Event Time Altitude Azimuth Distance (km) Brightness Sun altitude
Rises 20:01:47 0° 202° (SSW) 2,645 6.1 -8.1°
Reaches altitude 10° 20:03:58 10° 209° (SSW) 1,764 5.2 -8.3°
Maximum altitude 20:07:42 45° 283° (WNW) 732 3.9 -8.8°
Drops below altitude 10° 20:11:28 10° 356° (N) 1,785 6.2 -9.3°
Sets 20:13:42 0° 3° (N) 2,682 7.1 -9.5°
